{"data":{"norad_id":49206,"epoch":"2026-09-20T03:08:28.840704Z","epoch_age_seconds":57651,"freshness":"FRESH","line1":"1 49206U 21083W   26263.13088936 -.00000272  00000+0 -72246-3 0  9998","line2":"2 49206  87.9164 316.5932 0002033 102.7202 257.4158 13.18685466242489","mean_motion":13.18685466,"eccentricity":0.0002033,"inclination_deg":87.9164,"raan_deg":316.5932,"arg_perigee_deg":102.7202,"mean_anomaly_deg":257.4158,"bstar":-0.00072246,"rev_number":24248,"period_min":109.19965656162,"perigee_km":1188.2066194906,"apogee_km":1191.2837203809,"semimajor_km":7567.8821699358,"source":"CELESTRAK","updated_at":"2026-09-20T09:00:44.664558Z"}}